Satellite: NO-44
Catalog number: 26931
Epoch time:      09350.46570941
Element set:    0339
Inclination:      067.0530 deg
RA of node:       314.7354 deg
Eccentricity:    0.0007070
Arg of perigee:   267.4706 deg
Mean anomaly:     092.5574 deg
Mean motion:   14.29576967 rev/day
Decay rate:       -1.9e-07 rev/day^2
Epoch rev:           42863
Checksum:              324

Satellite: SO-50
Catalog number: 27607
Epoch time:      09350.66952320
Element set:    0056
Inclination:      064.5571 deg
RA of node:       190.8664 deg
Eccentricity:    0.0045358
Arg of perigee:   155.6024 deg
Mean anomaly:     204.7229 deg
Mean motion:   14.71481259 rev/day
Decay rate:      -1.49e-06 rev/day^2
Epoch rev:           37552
Checksum:              313

Satellite: CO-55
Catalog number: 27844
Epoch time:      09350.61634666
Element set:     735
Inclination:      098.7117 deg
RA of node:       357.2036 deg
Eccentricity:    0.0009934
Arg of perigee:   342.3492 deg
Mean anomaly:     017.7353 deg
Mean motion:   14.20673214 rev/day
Decay rate:        6.6e-07 rev/day^2
Epoch rev:           33516
Checksum:              313

Satellite: CO-57
Catalog number: 27848
Epoch time:      09350.54913490
Element set:    0686
Inclination:      098.7165 deg
RA of node:       356.2076 deg
Eccentricity:    0.0009951
Arg of perigee:   347.3964 deg
Mean anomaly:     012.6998 deg
Mean motion:   14.20470549 rev/day
Decay rate:        4.3e-07 rev/day^2
Epoch rev:           33511
Checksum:              340

Satellite: AO-51
Catalog number: 28375
Epoch time:      09350.55781696
Element set:    0557
Inclination:      098.0527 deg
RA of node:       349.5531 deg
Eccentricity:    0.0083692
Arg of perigee:   292.3689 deg
Mean anomaly:     066.8642 deg
Mean motion:   14.40662665 rev/day
Decay rate:        1.2e-07 rev/day^2
Epoch rev:           28721
Checksum:              346

Satellite: CO-56
Catalog number: 28941
Epoch time:      09297.68475575
Element set:     556
Inclination:      098.0955 deg
RA of node:       138.9518 deg
Eccentricity:    0.0011688
Arg of perigee:   319.8691 deg
Mean anomaly:     040.7485 deg
Mean motion:   16.46998778 rev/day
Decay rate:  1.4491492e-01 rev/day^2
Epoch rev:           20790
Checksum:              407

Satellite: GENESAT1
Catalog number: 29655
Epoch time:      09350.73253449
Element set:    0900
Inclination:      040.0176 deg
RA of node:       115.7587 deg
Eccentricity:    0.0004911
Arg of perigee:   043.8333 deg
Mean anomaly:     316.2871 deg
Mean motion:   15.70937684 rev/day
Decay rate:     2.3260e-04 rev/day^2
Epoch rev:           17113
Checksum:              293

Satellite: CP3
Catalog number: 31129
Epoch time:      09351.59387825
Element set:     400
Inclination:      097.9663 deg
RA of node:       035.6531 deg
Eccentricity:    0.0103364
Arg of perigee:   076.8585 deg
Mean anomaly:     284.4126 deg
Mean motion:   14.52191534 rev/day
Decay rate:       1.41e-06 rev/day^2
Epoch rev:           14150
Checksum:              295

Satellite: CO-65
Catalog number: 32785
Epoch time:      09351.83215884
Element set:     553
Inclination:      097.9232 deg
RA of node:       054.0532 deg
Eccentricity:    0.0015189
Arg of perigee:   150.7703 deg
Mean anomaly:     209.4351 deg
Mean motion:   14.81557125 rev/day
Decay rate:       2.48e-06 rev/day^2
Epoch rev:            8863
Checksum:              316

Satellite: KKS-1
Catalog number: 33493
Epoch time:      09351.70056112
Element set:      32
Inclination:      098.0698 deg
RA of node:       104.8870 deg
Eccentricity:    0.0020300
Arg of perigee:   011.7725 deg
Mean anomaly:     348.3964 deg
Mean motion:   14.80799552 rev/day
Decay rate:       2.98e-06 rev/day^2
Epoch rev:            4862
Checksum:              300

Satellite: SOHLA-1
Catalog number: 33496
Epoch time:      09350.80976255
Element set:    0977
Inclination:      098.0500 deg
RA of node:       097.4030 deg
Eccentricity:    0.0007723
Arg of perigee:   064.7854 deg
Mean anomaly:     295.4146 deg
Mean motion:   14.69459634 rev/day
Decay rate:        3.0e-07 rev/day^2
Epoch rev:           04809
Checksum:              323

/EX
SB KEPS @ AMSAT  $ORB09351.W
Orbital Elements  09351.WEATHER

HR AMSAT ORBITAL ELEMENTS FOR WEATHER SATELLITES
FROM WA5QGD FORT WORTH,TX December 17, 2009
Send Subscribe/unsubscribe to KEPS at 
http://www.amsat.org/mailman/listinfo/keps
BID: ORB09351.W
TO ALL RADIO AMATEURS BT

Satellite: NOAA-10
Catalog number: 16969
Epoch time:      09351.04157716
Element set:     876
Inclination:      098.6754 deg
RA of node:       016.5475 deg
Eccentricity:    0.0012803
Arg of perigee:   026.2597 deg
Mean anomaly:     333.9261 deg
Mean motion:   14.27401812 rev/day
Decay rate:        2.5e-07 rev/day^2
Epoch rev:           20959
Checksum:              314

Satellite: NOAA-11
Catalog number: 19531
Epoch time:      09351.21980725
Element set:     891
Inclination:      098.7790 deg
RA of node:       078.2999 deg
Eccentricity:    0.0011116
Arg of perigee:   310.0029 deg
Mean anomaly:     050.0173 deg
Mean motion:   14.14911148 rev/day
Decay rate:       1.87e-06 rev/day^2
Epoch rev:            9540
Checksum:              294

